Вернуться в каталог

STARLINK-37942

АктивенСвязьVLEO
NORAD 100280·PAYLOAD·🇺🇸 United States

Запущен Aug 11, 2026 с Cape Canaveral Space Force Station

Loading…

Ближайшие Пролёты (ближайшие 24 часа)

TLE

УстаревающийSource: Space-Track

Эпоха: Sep 13, 2026, 11:53 UTC

1 A0280U 26183J   26256.49533694 -.00498621  00000-0 -35909-2 0  9994
2 A0280  53.1588 291.9032 0002011  55.3419 304.7790 15.74277222  5205

Отслеживайте STARLINK-37942 в реальном времени с AllMySat

Download on the App Store